DNMM

Murtala Muhammed International Airport

Airport
ICAO code
DNMM
IATA Code
LOS
Summary
ICAO Region
AFI
ICAO Territory
Location

Ikeja, Lagos State

Serving
Lagos
Elevation
135 ft
Coordinates
6° 34' 40" N , 3° 19' 18" E
KCC
Metar
DNMM 251200Z 01005KT 8000 SCT011 27/25 Q1014 NOSIG

International airport serving Lagos, Nigeria.

Climatology

Tropical Savanna climate (Köppen climate classification Aw)

Runways

Designator Length Width Surface Rops
18L/36R 2742 45 ASP Yes/Yes
18R/36L 3900 60 ASP Yes/Yes

SKYbrary Partners:

Safety knowledge contributed by: